Flag for Marshall Islands Weather past 2 weeks in Majuro, Marshall Islands

Now
82 °F

Overcast.


Feels Like: 90 °F
Forecast: 83 / 86 °F
Wind: 8 mph from East

Location: Majuro Atoll

Current Time: May 25, 2015 at 4:27:21 AM

Latest Report: May 25, 2015 at 3:53 AM


Visibility: 15 mi

Pressure: 29.88 "Hg

Humidity: 84%

Dew point: 77 °F

Location of MajuroLocation

Historic Weather in Majuro — Graph

°F

Majuro temperature yesterday

Maximum temperature yesterday: 86 °F (at 2:52 PM)
Minimum temperature yesterday: 81 °F (at 8:53 PM)
Average temperature yesterday: 82 °F

Past Weeks' High & Low Weather Summary

 TemperatureHumidityPressure
High87 °F (May 21, 12:50 PM)95% (May 19, 3:51 AM)29.95 "Hg (May 19, 3:51 AM)
Low76 °F (May 19, 3:51 AM)72% (May 20, 2:53 PM)29.74 "Hg (May 10, 4:55 PM)
Average82 °F84%29.84 "Hg
* Reported May 10 2:50 AM — May 25 2:51 AM, Majuro, Weather by CustomWeather, © 2015

Note: Actual official high and low records may vary slightly from our data, if they occured in-between our weather recording intervals... More about our weather records

Advertising

Majuro weather history for previous 24 hours

 ConditionsComfort  
Time TempWeatherWind HumidityBarometerVisibility
2:51 AM
Mon, May 25
82 °FOvercast.5 mph84%29.88 "Hg15 mi
1:51 AM82 °FOvercast.5 mph88%29.89 "Hg15 mi
12:52 AM81 °FOvercast.6 mph88%29.91 "Hg15 mi
11:53 PM
Sun, May 24
82 °FOvercast.5 mph86%29.93 "Hg15 mi
10:52 PM81 °FOvercast.7 mph84%29.95 "Hg15 mi
9:54 PM81 °FOvercast.3 mph86%29.95 "Hg15 mi
8:53 PM81 °FOvercast.9 mph89%29.93 "Hg15 mi
7:56 PM81 °FOvercast.6 mph83%29.91 "Hg15 mi
6:53 PM81 °FCloudy.14 mph86%29.89 "Hg15 mi
5:51 PM82 °FCloudy.6 mph86%29.87 "Hg8 mi
4:54 PM81 °FSprinkles. Cloudy.5 mph86%29.86 "Hg8 mi
3:52 PM83 °FCloudy.6 mph82%29.85 "Hg15 mi
2:52 PM86 °FCloudy.8 mph78%29.85 "Hg15 mi
1:55 PM85 °FCloudy.10 mph78%29.85 "Hg15 mi
12:55 PM85 °FBroken clouds.10 mph80%29.87 "Hg15 mi
10:50 AM84 °FBroken clouds.6 mph80%29.91 "Hg15 mi
9:55 AM84 °FMore clouds than sun.7 mph80%29.93 "Hg15 mi
8:54 AM82 °FCloudy.No wind86%29.91 "Hg15 mi
6:52 AM81 °FMostly cloudy.5 mph84%29.89 "Hg15 mi
5:56 AM81 °FPartly cloudy.6 mph85%29.87 "Hg15 mi
4:55 AM81 °FPartly cloudy.No wind88%29.86 "Hg15 mi
Weather by CustomWeather, © 2015

See weather overviewHow to use our weather pages